GW5622 Weather Reports


Display with metric or nautical units.
time (UTC)temp
F
wind
direction
speed
MPH
gust
MPH
rain 1hr
in
rain 24hr
in
rain mn
in
humidity
%
barometer
mb
20260502200016 63 225 2.0 7.0 0.00 0.00 0.00 33 1013.9
20260502195508 63 238 2.0 7.0 0.00 0.00 0.00 32 1014.0
20260502195006 63 250 2.0 7.0 0.00 0.00 0.00 33 1014.0
20260502194521 63 206 3.0 10.0 0.00 0.00 0.00 31 1014.2
20260502194003 63 194 3.0 10.0 0.00 0.00 0.00 33 1014.2
20260502193504 63 244 4.0 10.0 0.00 0.00 0.00 31 1014.3
20260502193006 63 201 5.0 10.0 0.00 0.00 0.00 31 1014.4
20260502192503 63 220 2.0 4.0 0.00 0.00 0.00 34 1014.4
20260502192006 62 343 1.0 7.0 0.00 0.00 0.00 33 1014.6
20260502191509 61 245 4.0 7.0 0.00 0.00 0.00 33 1014.6
20260502191005 60 230 4.0 10.0 0.00 0.00 0.00 33 1014.7
20260502190507 60 171 6.0 10.0 0.00 0.00 0.00 33 1014.9
20260502190015 60 237 4.0 8.0 0.00 0.00 0.00 33 1015.0
20260502185506 60 299 4.0 8.0 0.00 0.00 0.00 32 1015.0
20260502185011 61 231 3.0 8.0 0.00 0.00 0.00 33 1015.1
20260502184520 62 227 2.0 7.0 0.00 0.00 0.00 32 1015.1
20260502184009 63 238 4.0 8.0 0.00 0.00 0.00 31 1015.1
20260502183510 62 213 3.0 10.0 0.00 0.00 0.00 32 1015.2
20260502183028 61 234 3.0 10.0 0.00 0.00 0.00 33 1015.3
20260502182504 62 232 4.0 9.0 0.00 0.00 0.00 32 1015.4
20260502182003 61 218 3.0 14.0 0.00 0.00 0.00 34 1015.4
20260502181507 61 218 4.0 14.0 0.00 0.00 0.00 32 1015.6
20260502181003 62 227 8.0 14.0 0.00 0.00 0.00 30 1015.7
20260502180503 62 183 6.0 12.0 0.00 0.00 0.00 30 1015.7
20260502170507 59 246 3.0 9.0 0.00 0.01 0.00 32 1016.8
20260502164009 58 242 3.0 7.0 0.00 0.01 0.00 32 1017.4
20260502163506 57 248 3.0 8.0 0.00 0.01 0.00 34 1017.4
20260502163021 57 235 2.0 8.0 0.00 0.01 0.00 33 1017.5
20260502162508 56 223 4.0 11.0 0.00 0.01 0.00 33 1017.6
20260502162009 56 205 6.0 11.0 0.00 0.01 0.00 33 1017.6
20260502161522 56 226 5.0 11.0 0.00 0.01 0.00 33 1017.8
20260502161008 56 202 2.0 16.0 0.00 0.01 0.00 33 1017.9
20260502160507 56 190 6.0 16.0 0.00 0.01 0.00 33 1018.0
20260502152009 53 180 3.0 11.0 0.00 0.01 0.00 34 1018.7
20260502151524 53 121 7.0 11.0 0.00 0.01 0.00 35 1018.8
20260502151008 52 195 4.0 8.0 0.00 0.01 0.00 35 1019.1
20260502150508 52 208 2.0 5.0 0.00 0.01 0.00 35 1019.1
20260502130507 36 234 0.0 2.0 0.00 0.01 0.00 75 1020.2
20260502123515 32 234 0.0 2.0 0.00 0.01 0.00 76 1020.4
20260502123011 31 234 0.0 2.0 0.00 0.01 0.00 76 1020.4
20260502122507 31 234 0.0 0.0 0.00 0.01 0.00 77 1020.4
20260502122010 30 234 0.0 0.0 0.00 0.01 0.00 78 1020.4
20260502121516 29 234 0.0 0.0 0.00 0.01 0.00 77 1020.4
20260502121005 29 234 0.0 0.0 0.00 0.01 0.00 77 1020.3
20260502120506 29 234 0.0 0.0 0.00 0.01 0.00 78 1020.4
20260502115510 28 234 0.0 2.0 0.00 0.01 0.00 78 1020.4
20260502115011 28 234 0.0 0.0 0.00 0.01 0.00 77 1020.4
20260502114528 27 234 0.0 0.0 0.00 0.01 0.00 77 1020.5
20260502114008 27 234 0.0 0.0 0.00 0.01 0.00 78 1020.5
20260502113509 27 234 0.0 0.0 0.00 0.01 0.00 78 1020.5
20260502113028 27 234 0.0 0.0 0.00 0.01 0.00 78 1020.5
20260502112509 27 234 0.0 0.0 0.00 0.01 0.00 78 1020.5
20260502112006 27 234 0.0 0.0 0.00 0.01 0.00 79 1020.6
20260502111514 27 234 0.0 0.0 0.00 0.01 0.00 80 1020.5
20260502111007 27 234 0.0 0.0 0.00 0.01 0.00 80 1020.7
20260502110506 27 234 0.0 0.0 0.00 0.01 0.00 80 1020.7
20260502110018 27 234 0.0 0.0 0.00 0.01 0.00 80 1020.6
20260502105507 27 234 0.0 0.0 0.00 0.01 0.00 79 1020.6
20260502105007 27 234 0.0 0.0 0.00 0.01 0.00 79 1020.6
20260502104527 27 234 0.0 0.0 0.00 0.01 0.00 79 1020.6
20260502104006 27 234 0.0 0.0 0.00 0.01 0.00 79 1020.7
20260502103507 27 234 0.0 0.0 0.00 0.01 0.00 78 1020.7
20260502103027 27 234 0.0 0.0 0.00 0.01 0.00 78 1020.8
20260502102515 27 234 0.0 0.0 0.00 0.01 0.00 77 1020.8
20260502102012 27 234 0.0 0.0 0.00 0.01 0.00 77 1020.9
20260502101528 27 234 0.0 0.0 0.00 0.01 0.00 77 1020.9
20260502101011 27 234 0.0 0.0 0.00 0.01 0.00 77 1020.9
20260502100508 28 234 0.0 0.0 0.00 0.01 0.00 78 1020.9
20260502091528 28 234 0.0 0.0 0.00 0.01 0.00 73 1020.9
20260502091009 29 234 0.0 0.0 0.00 0.01 0.00 72 1020.9
20260502090509 29 234 0.0 0.0 0.00 0.01 0.00 72 1020.9
20260502071523 32 234 0.0 0.0 0.00 0.01 0.00 64 1021.3
20260502071009 32 234 0.0 0.0 0.00 0.01 0.00 65 1021.4
20260502070513 32 234 0.0 0.0 0.00 0.01 0.00 64 1021.4
20260502070038 32 234 0.0 0.0 0.00 0.01 0.00 64 1021.4
20260502065511 33 234 0.0 2.0 0.00 0.01 0.00 63 1021.5
20260502065017 33 234 0.0 2.0 0.00 0.01 0.00 63 1021.5
20260502064526 33 234 0.0 2.0 0.00 0.01 0.00 62 1021.6
20260502064008 33 234 0.0 2.0 0.00 0.01 0.00 62 1021.6
20260502063515 33 234 0.0 0.0 0.00 0.01 0.00 61 1021.7
20260502063032 33 234 0.0 0.0 0.00 0.01 0.00 60 1021.8
20260502062510 34 234 0.0 0.0 0.00 0.01 0.00 60 1021.9
20260502062009 34 234 0.0 2.0 0.00 0.01 0.00 59 1021.9
20260502061522 34 234 0.0 2.0 0.00 0.01 0.00 60 1021.9
20260502061009 34 234 0.0 0.0 0.00 0.01 0.00 59 1022.0
20260502060509 34 234 0.0 0.0 0.00 0.01 0.00 60 1022.0
20260502060036 34 234 0.0 0.0 0.00 0.01 0.00 59 1022.0
20260502055511 35 234 0.0 1.0 0.00 0.01 0.00 59 1022.1
20260502055015 35 234 0.0 1.0 0.00 0.01 0.00 58 1022.1
20260502054539 35 234 0.0 2.0 0.00 0.01 0.00 58 1022.1
20260502054009 35 234 0.0 2.0 0.00 0.01 0.00 57 1022.0
20260502053508 36 234 0.0 2.0 0.00 0.01 0.00 57 1021.9
20260502053027 36 234 0.0 1.0 0.00 0.01 0.00 56 1021.8
20260502052516 36 234 0.0 2.0 0.00 0.01 0.00 56 1021.9
20260502052011 36 229 0.0 2.0 0.00 0.01 0.00 56 1021.9
20260502051528 36 229 0.0 2.0 0.00 0.01 0.00 56 1021.8
20260502051011 36 229 1.0 2.0 0.00 0.01 0.00 56 1021.9
20260502050505 37 271 0.0 2.0 0.00 0.01 0.00 56 1021.9
20260502050022 37 271 0.0 2.0 0.00 0.01 0.00 55 1021.9
20260502045508 37 271 0.0 2.0 0.00 0.01 0.01 55 1021.8
20260502045005 37 271 0.0 2.0 0.00 0.01 0.01 55 1021.8
20260502044506 37 271 0.0 2.0 0.00 0.01 0.01 55 1021.9
20260502044006 38 271 0.0 2.0 0.00 0.01 0.01 55 1021.9
20260502043505 38 271 0.0 2.0 0.00 0.01 0.01 55 1021.9
20260502043010 38 271 0.0 2.0 0.00 0.01 0.01 54 1022.0
20260502042505 38 271 0.0 2.0 0.00 0.01 0.01 54 1022.0
20260502042006 38 271 0.0 2.0 0.00 0.01 0.01 54 1022.0
20260502041527 38 271 0.0 2.0 0.00 0.01 0.01 54 1022.1
20260502041008 38 271 0.0 2.0 0.00 0.01 0.01 54 1022.1
20260502040509 38 271 0.0 2.0 0.00 0.01 0.01 54 1022.2
20260502040042 39 271 0.0 2.0 0.00 0.01 0.01 54 1022.2
20260502035507 39 309 0.0 2.0 0.00 0.01 0.01 53 1022.2
20260502035008 39 309 0.0 2.0 0.00 0.01 0.01 52 1022.1
20260502034524 40 309 0.0 2.0 0.00 0.01 0.01 51 1022.1
20260502034012 40 309 0.0 2.0 0.00 0.01 0.01 50 1022.1
20260502033510 40 309 0.0 2.0 0.00 0.01 0.01 48 1022.1
20260502033015 41 309 0.0 0.0 0.00 0.01 0.01 49 1022.0
20260502032505 41 309 0.0 0.0 0.00 0.01 0.01 50 1022.0
20260502032007 41 309 0.0 2.0 0.00 0.01 0.01 48 1022.0
20260502031510 41 309 0.0 2.0 0.00 0.01 0.01 46 1021.9
20260502031005 41 309 0.0 2.0 0.00 0.01 0.01 46 1022.0
20260502030506 42 309 0.0 2.0 0.00 0.01 0.01 45 1022.0
20260502030018 42 317 0.0 2.0 0.00 0.01 0.01 45 1022.0
20260502025505 42 311 0.0 2.0 0.00 0.01 0.01 45 1022.0
20260502025014 42 311 0.0 5.0 0.00 0.01 0.01 45 1022.0
20260502024521 42 309 1.0 5.0 0.00 0.01 0.01 45 1022.0
20260502024010 42 311 0.0 5.0 0.00 0.01 0.01 44 1021.9
20260502023511 42 299 0.0 2.0 0.00 0.01 0.01 44 1021.9
20260502023032 43 300 0.0 2.0 0.00 0.01 0.01 44 1021.9
20260502022504 43 286 0.0 2.0 0.00 0.01 0.01 44 1021.9
20260502022005 43 279 0.0 2.0 0.00 0.01 0.01 42 1021.8
20260502021509 44 279 0.0 2.0 0.00 0.01 0.01 41 1021.7
20260502021008 44 279 0.0 2.0 0.00 0.01 0.01 40 1021.6
20260502020507 45 279 0.0 0.0 0.00 0.01 0.01 39 1021.6
20260502020016 45 279 0.0 2.0 0.00 0.01 0.01 39 1021.6
20260502015507 46 279 0.0 2.0 0.00 0.01 0.01 38 1021.5
20260502015010 46 279 0.0 2.0 0.00 0.01 0.01 37 1021.4
20260502014521 46 277 1.0 2.0 0.00 0.01 0.01 36 1021.4
20260502014008 47 279 0.0 2.0 0.00 0.01 0.01 34 1021.3
20260502013505 47 294 0.0 2.0 0.00 0.01 0.01 34 1021.3
20260502013024 48 294 0.0 2.0 0.00 0.01 0.01 33 1021.2
20260502012509 48 298 0.0 3.0 0.00 0.01 0.01 33 1021.1
20260502012008 49 313 1.0 3.0 0.00 0.01 0.01 32 1021.1
20260502011525 49 297 1.0 5.0 0.00 0.01 0.01 32 1021.1
20260502011003 49 309 1.0 5.0 0.00 0.01 0.01 32 1021.1
20260502010505 50 294 1.0 7.0 0.00 0.01 0.01 32 1021.0
20260502010015 50 321 2.0 7.0 0.00 0.01 0.01 31 1021.1
20260502005506 50 305 3.0 8.0 0.00 0.01 0.01 30 1021.1
20260502005006 50 327 2.0 8.0 0.00 0.01 0.01 30 1021.1
20260502004527 51 316 3.0 8.0 0.00 0.01 0.01 30 1021.0
20260502004008 51 323 2.0 8.0 0.00 0.01 0.01 30 1021.0
20260502003507 51 330 3.0 7.0 0.00 0.01 0.01 30 1021.0
20260502003021 51 346 2.0 7.0 0.00 0.01 0.01 30 1021.0
20260502002509 51 338 2.0 5.0 0.00 0.01 0.01 31 1021.0
20260502002011 51 292 1.0 4.0 0.00 0.01 0.01 30 1021.0
20260502001536 51 302 1.0 6.0 0.00 0.01 0.01 30 1021.0
20260502001006 51 306 2.0 7.0 0.00 0.01 0.01 29 1020.9
20260502000510 51 296 4.0 7.0 0.00 0.01 0.01 29 1020.9
20260502000008 51 303 1.0 8.0 0.00 0.01 0.01 30 1020.9
20260501235504 51 279 2.0 8.0 0.00 0.01 0.01 28 1020.9
20260501235012 51 277 3.0 7.0 0.00 0.01 0.01 28 1020.9
20260501234515 52 319 1.0 7.0 0.00 0.01 0.01 30 1020.9
20260501234008 52 301 1.0 10.0 0.00 0.01 0.01 29 1020.9
20260501233504 53 311 4.0 10.0 0.00 0.01 0.01 28 1020.9
20260501233018 53 282 2.0 9.0 0.00 0.01 0.01 28 1021.0
20260501232512 53 311 3.0 8.0 0.00 0.01 0.01 29 1021.0
20260501232008 52 298 1.0 8.0 0.00 0.01 0.01 27 1021.0
20260501231527 52 312 3.0 8.0 0.00 0.01 0.01 28 1021.0
20260501231007 52 254 2.0 11.0 0.00 0.01 0.01 29 1021.0
20260501230510 53 286 3.0 13.0 0.00 0.01 0.01 27 1021.1
20260501230051 53 319 5.0 13.0 0.00 0.01 0.01 27 1021.0
20260501225509 54 275 5.0 13.0 0.00 0.01 0.01 26 1021.0
20260501225005 54 340 4.0 13.0 0.00 0.01 0.01 28 1021.1
20260501224514 55 280 8.0 12.0 0.00 0.01 0.01 27 1021.0
20260501224006 55 61 4.0 9.0 0.00 0.01 0.01 26 1021.1
20260501223507 54 321 3.0 10.0 0.00 0.01 0.01 27 1021.1
20260501223021 54 331 3.0 13.0 0.00 0.01 0.01 26 1021.1
20260501222508 54 325 5.0 13.0 0.00 0.01 0.01 26 1021.1
20260501222011 54 309 2.0 11.0 0.00 0.01 0.01 26 1021.1
20260501221523 54 340 5.0 11.0 0.00 0.01 0.01 26 1021.1
20260501221009 54 332 4.0 8.0 0.00 0.01 0.01 26 1021.1
20260501220505 54 312 1.0 11.0 0.00 0.01 0.01 28 1021.1
20260501220006 54 352 3.0 11.0 0.00 0.01 0.01 28 1021.2
20260501215505 54 351 1.0 5.0 0.00 0.01 0.01 28 1021.1
20260501215005 54 28 2.0 9.0 0.00 0.01 0.01 28 1021.2
20260501214509 55 320 2.0 9.0 0.00 0.01 0.01 25 1021.2
20260501214004 55 26 2.0 8.0 0.00 0.01 0.01 26 1021.2
20260501213505 54 348 1.0 9.0 0.00 0.01 0.01 29 1021.1
20260501213020 54 296 3.0 12.0 0.00 0.01 0.01 28 1021.1
20260501212508 54 273 5.0 12.0 0.00 0.01 0.01 26 1021.3
20260501212010 54 252 5.0 11.0 0.00 0.01 0.01 26 1021.3
20260501211521 54 265 3.0 11.0 0.00 0.01 0.01 28 1021.4
20260501211011 54 31 2.0 5.0 0.00 0.01 0.01 28 1021.4
20260501210511 54 311 1.0 8.0 0.00 0.01 0.01 27 1021.5
20260501210025 54 13 3.0 8.0 0.00 0.01 0.01 27 1021.5
20260501205505 53 352 1.0 8.0 0.00 0.01 0.01 29 1021.6
20260501205005 53 269 4.0 10.0 0.00 0.01 0.01 27 1021.6
20260501204509 53 298 5.0 10.0 0.00 0.01 0.01 27 1021.6
20260501204005 53 59 2.0 10.0 0.00 0.01 0.01 29 1021.5
20260501203505 54 277 6.0 13.0 0.00 0.01 0.01 27 1021.7
20260501203022 55 286 6.0 13.0 0.00 0.01 0.01 27 1021.6
20260501202506 55 5 3.0 9.0 0.00 0.01 0.01 27 1021.5
20260501202008 54 342 3.0 9.0 0.00 0.01 0.01 30 1021.6
20260501201516 53 344 4.0 9.0 0.00 0.01 0.01 29 1021.6
20260501201008 53 28 1.0 9.0 0.00 0.01 0.01 28 1021.6
20260501200509 52 256 3.0 10.0 0.00 0.01 0.01 27 1021.7